Regional Weather Roundup
Issued by NWS Sioux Falls, SD

Home | Current Version | Previous Version | Text Only | Print | Product List | Glossary On
Versions: 1 2 3 4 5 6 7 8 9 10 11 12 13 14 15 16 17 18 19 20 21 22 23 24 25 26 27 28 29 30 31 32 33 34 35 36 37 38 39 40 41 42 43 44 45 46 47 48 49 50
930
ASUS43 KFSD 240910
RWRFSD

WEATHER ROUNDUP FOR SE SOUTH DAKOTA/SW MINNESOTA/NW IOWA
NATIONAL WEATHER SERVICE SIOUX FALLS SD
400 AM CDT SUN JUL 24 2016

NOTE: "FAIR" INDICATES FEW OR NO CLOUDS BELOW 12,000 FEET WITH NO
SIGNIFICANT WEATHER AND OR OBSTRUCTIONS TO VISIBILITY.


SDZ038>040-050-052>070-241000-
SOUTHEAST SOUTH DAKOTA

CITY           SKY/WX    TMP DP  RH WIND       PRES   REMARKS
BROOKINGS      CLEAR     68  67  96 CALM      29.90S
CHAMBERLAIN    PTCLDY    67  64  91 NW8       29.97S
HURON          CLEAR     65  61  87 W8        29.93R
MADISON        FAIR      64  64 100 NW7       29.93R
MITCHELL       CLEAR     67  63  87 W7        29.93R
SIOUX FALLS    CLEAR     69  66  90 NW5       29.90R
WINNER         FAIR      66  56  70 N8        29.96F
YANKTON        PTCLDY    72  64  78 NW8       29.91R
$$

MNZ071-072-080-081-089-090-097-098-241000-
SOUTHWEST MINNESOTA

CITY           SKY/WX    TMP DP  RH WIND       PRES   REMARKS
FAIRMONT       CLEAR     77  36  22 NW14      29.81R
JACKSON        CLEAR     75  68  78 NW12G18   29.86R
LUVERNE        CLEAR     70  64  83 NW5       29.90R
MARSHALL       CLEAR     70  67  90 NW9       29.86R
MONTEVIDEO     CLEAR     70  70 100 NW7       29.86R
REDWOOD FALLS  CLEAR     74  68  81 NW12G18   29.82R
TRACY          CLEAR     72  69  91 NW9       29.87R
WINDOM         CLEAR     73  70  88 NW13      29.85R
WORTHINGTON    CLEAR     72  68  87 NW10      29.89R
$$

IAZ001>003-012>014-020>022-031-032-NEZ013-014-SDZ071-241000-
NORTHWEST IOWA

CITY           SKY/WX    TMP DP  RH WIND       PRES   REMARKS
CHEROKEE       PTCLDY    77  75  93 N12       29.86R
DENISON        CLEAR     77  75  94 W5        29.83R
ESTHERVILLE    CLEAR     75  72  90 NW12      29.84R
LE MARS        CLEAR     77  72  83 N8G14     29.88S
SHELDON        CLEAR     73  72  94 N8        29.87R
SIOUX CITY     CLEAR     80  70  71 N15       29.86R
SPENCER        PTCLDY    76  72  87 NW14      29.85R
STORM LAKE     MOCLDY    77  75  94 NW12      29.86S
$$

ABBREVIATIONS USED IN REMARKS
   TC - TEMPERATURE IN CELSIUS
  WCI - WIND CHILL INDEX
   HX - HEAT INDEX
  VSB - VISIBILITY





USA.gov is the U.S. government's official web portal to all federal, state and local government web resources and services.